Probability
0 0 0 0 0 0 0 0 0 0 0 0 0 0 0 0 0 0 0 0 0 0 0 0 0 0 0 0 0 0 0 0 0 0 1 2 3 3 2 1 0 0 0 0
0 0 0 0 0 0 0 0 0 0 0 0 0 0 0 0 0 0 0 0 0 0 0 0 0 0 0 0 0 0 0 0 0 0 0 1 2 3 3 1 1 1 1 1
0 0 0 0 0 0 0 0 0 0 0 0 0 0 0 0 0 0 0 0 0 0 0 0 0 0 0 0 0 0 0 0 0 0 0 0 1 2 3 3 3 3 3 3
0 0 0 0 0 0 0 0 0 0 0 0 0 0 0 0 0 0 0 0 0 0 0 0 0 0 0 0 0 0 0 0 0 0 0 0 0 1 2 3 3 4 5 5
0 0 0 0 0 0 0 0 0 0 0 0 0 0 0 0 0 0 0 0 0 0 0 0 0 0 0 0 0 0 0 0 0 0 0 0 0 0 1 1 2 3 4 5
0 0 0 0 0 0 0 0 0 0 0 0 0 0 0 0 0 0 0 0 0 0 0 0 0 0 0 0 0 0 0 0 0 0 0 0 0 0 0 0 0 1 2 3
0 0 0 0 0 0 0 0 0 0 0 0 0 0 0 0 0 0 0 0 0 0 0 0 0 0 0 0 0 0 0 0 0 0 0 0 0 0 0 0 0 0 0 1
0 0 0 0 0 0 0 0 0 0 0 0 0 0 0 0 0 0 0 0 0 0 0 0 0 0 0 0 0 0 0 0 0 0 0 0 0 0 0 0 0 0 0 0
0 0 0 0 0 0 0 0 0 0 0 0 0 0 0 0 0 0 0 0 0 0 0 0 0 0 0 0 0 0 0 0 0 0 0 0 0 0 0 0 0 0 0 0
0 0 0 0 0 0 0 0 0 0 0 0 0 0 0 0 0 0 0 0 0 0 0 0 0 0 0 0 0 0 0 0 0 0 0 0 0 0 0 0 0 0 0 0
0 0 0 0 0 0 0 0 0 0 0 0 0 0 0 0 0 0 0 0 0 0 0 0 0 0 0 0 0 0 0 0 0 0 0 0 0 0 0 0 0 0 0 0
0 0 0 0 0 0 0 0 0 0 0 0 0 0 0 0 0 0 0 0 0 0 0 0 0 0 0 0 0 0 0 0 0 0 0 0 0 0 0 0 0 0 0 0
0 0 0 0 0 0 0 0 0 0 0 0 0 0 0 0 0 0 0 0 0 0 0 0 0 0 0 0 0 0 0 0 0 0 0 0 0 0 0 0 0 0 0 0
0 0 0 0 0 0 0 0 0 0 0 0 0 0 0 0 0 0 0 0 0 0 0 0 0 0 0 0 0 0 0 0 0 0 0 0 0 0 0 0 0 0 0 0
0 0 0 0 0 0 0 0 0 0 0 0 0 0 0 0 0 0 0 0 0 0 0 0 0 0 0 0 0 0 0 0 0 0 0 0 0 0 0 0 0 0 0 0
0 0 0 0 0 0 0 0 0 0 0 0 0 0 0 0 0 0 0 0 0 0 0 0 0 0 0 0 0 0 0 0 0 0 0 0 0 0 0 0 0 0 0 1
0 0 0 0 0 0 0 0 0 0 0 0 0 0 0 0 0 0 0 0 0 0 0 0 0 0 0 0 0 0 0 0 0 0 0 0 0 0 0 0 0 0 1 2
0 0 0 0 0 0 0 0 0 0 0 0 0 0 0 0 0 0 0 0 0 0 0 0 0 0 0 0 0 0 0 0 0 0 0 0 0 0 0 0 0 0 1 2
0 0 0 0 0 0 0 0 0 0 0 0 0 0 0 0 0 0 0 0 0 0 0 0 0 0 0 0 0 0 0 0 0 0 0 0 0 0 0 0 0 0 0 1
0 0 0 0 0 0 0 0 0 0 0 0 0 0 0 0 0 0 0 0 0 0 0 0 0 0 0 0 0 0 0 0 0 0 0 0 0 0 0 0 0 0 0 0
0 0 0 0 0 0 0 0 0 0 0 0 0 0 0 0 0 0 0 0 0 0 0 0 0 0 0 0 0 0 0 0 0 0 0 0 0 0 0 0 0 0 0 0
0 0 0 0 0 0 0 0 0 0 0 0 0 0 0 0 0 0 0 0 0 0 0 0 0 0 0 0 0 0 0 0 0 0 0 0 0 0 0 0 0 0 0 0
0 0 0 0 0 0 0 0 0 0 0 0 0 0 0 0 0 0 0 0 0 0 0 0 0 0 0 0 0 0 0 0 0 0 0 0 0 0 0 0 0 0 0 0
0 0 0 0 0 0 0 0 0 0 0 0 0 0 0 0 0 0 0 0 0 0 0 0 0 0 0 0 0 0 0 0 0 0 0 0 0 0 0 0 0 0 0 0
0 0 0 0 0 0 0 0 0 0 0 0 0 0 0 0 0 0 0 0 0 0 0 0 0 0 0 0 0 0 0 0 0 0 0 0 0 0 0 0 0 0 0 0
0 0 0 0 0 0 0 0 0 0 0 0 0 0 0 0 0 0 0 0 0 0 0 0 0 0 0 0 0 0 0 0 0 0 0 0 0 0 0 0 0 0 0 0
0 0 0 0 0 0 0 0 0 0 0 0 0 0 0 0 0 0 0 0 0 0 0 0 0 0 0 0 0 0 0 0 0 0 0 0 0 0 0 0 0 0 0 0
Wind_Speed
5 5 5 7 8 8 10 10 11 9 8 7 5 4 3 2 2 2 2 2 2 2 2 2 2 2 2 1 1 2 2 3 3 3 3 3 3 3 3 4 4 4 5 5
6 5 5 8 9 10 10 10 11 10 10 5 4 4 3 3 3 4 4 3 3 3 3 2 2 2 2 2 1 2 2 3 3 3 3 3 3 3 3 3 4 4 5 5
5 4 7 9 8 9 8 8 9 10 7 3 4 4 4 3 4 5 4 4 4 4 3 3 2 2 2 2 2 2 2 3 2 3 3 3 3 3 4 4 4 4 4 4
4 5 8 1 2 3 6 7 7 6 5 5 4 4 4 3 3 4 4 4 4 4 3 3 2 2 2 2 2 3 3 3 3 3 3 4 4 4 5 4 4 4 4 5
4 6 7 4 3 3 5 6 4 5 5 4 3 4 3 1 2 4 4 4 3 4 3 3 2 2 2 2 3 3 3 3 4 4 4 4 4 5 5 4 4 5 5 5
6 6 6 0 2 1 5 5 2 3 3 3 3 5 2 1 3 3 3 3 3 3 3 3 3 3 3 3 3 4 4 4 4 5 5 5 5 5 4 5 5 5 5 5
9 8 6 0 1 3 6 1 2 2 3 4 5 5 3 3 3 3 3 3 3 3 3 3 3 3 4 4 4 4 4 4 4 5 5 5 4 4 5 5 5 5 6 5
7 8 5 3 3 4 3 3 1 2 3 4 4 4 3 3 3 3 3 3 3 3 3 3 3 4 4 4 4 4 4 4 4 5 5 4 4 4 5 5 5 5 5 5
5 4 3 2 4 4 4 5 4 4 4 4 5 5 5 5 4 4 4 4 3 4 4 3 3 4 4 4 4 4 4 5 5 5 5 5 5 5 5 5 5 5 5 5
7 7 6 6 6 6 6 6 6 5 5 5 6 6 6 5 4 4 4 4 4 4 4 4 4 4 4 5 4 5 5 5 4 5 5 5 4 4 4 5 5 5 5 5
9 8 8 7 7 7 6 6 6 6 5 6 6 6 6 5 5 5 4 4 4 4 5 5 5 5 4 4 4 5 5 5 5 4 5 4 4 4 5 5 5 6 5 5
8 7 7 6 6 7 7 7 6 5 6 6 6 6 6 5 5 5 5 4 4 5 5 5 5 5 5 5 5 5 5 5 4 4 4 4 4 4 4 5 5 6 7 7
8 7 8 8 8 8 8 7 6 6 6 6 6 5 6 5 5 5 5 5 5 5 6 5 5 5 5 5 5 6 6 5 5 4 5 5 5 5 5 4 4 6 7 7
7 7 8 8 7 7 7 6 6 6 6 5 5 5 5 6 5 6 6 5 5 5 6 5 5 5 5 5 6 6 6 6 6 5 5 5 5 5 5 5 4 4 5 7
8 8 8 7 7 7 6 5 6 5 5 4 4 5 5 6 6 5 5 5 5 5 5 5 5 5 5 5 6 6 6 5 5 5 5 5 5 5 5 6 5 5 4 4
7 7 7 7 7 7 7 6 6 6 5 5 5 5 6 6 6 5 4 4 4 5 5 5 6 5 5 5 6 5 5 7 7 6 5 5 5 5 5 5 6 5 5 5
6 6 6 7 7 7 7 7 7 6 6 6 6 5 5 5 5 5 5 4 5 5 6 6 6 5 5 6 6 5 5 5 7 6 5 5 5 5 5 5 6 6 6 5
7 7 7 7 6 6 7 6 6 6 6 6 5 5 5 5 6 5 5 5 5 6 6 6 6 6 6 6 5 5 5 5 5 5 5 5 6 5 5 6 6 7 6 5
4 4 5 6 6 6 6 6 6 6 5 5 5 6 6 6 6 5 5 5 5 6 6 5 6 6 5 6 6 5 5 5 5 5 5 6 6 6 5 6 6 6 6 6
3 3 4 4 4 4 5 5 5 5 4 4 5 5 6 5 5 5 5 5 5 5 5 6 6 5 6 5 6 5 5 5 5 5 5 5 5 5 5 5 6 6 6 6
3 4 4 4 4 4 4 4 4 5 4 4 5 5 5 5 5 5 5 5 5 5 5 6 5 4 5 5 5 4 4 5 5 5 5 5 5 5 6 6 6 6 5 5
4 4 5 4 4 4 4 4 4 5 4 4 5 5 5 5 5 5 5 5 5 5 4 4 4 5 5 5 4 4 4 5 5 4 4 5 5 5 5 5 5 5 5 5
4 4 5 5 5 5 5 4 4 4 4 5 5 5 5 4 4 4 5 4 4 5 5 4 5 6 6 4 4 4 4 5 5 5 5 5 5 5 5 5 5 4 4 4
4 4 5 5 4 4 5 5 4 4 4 4 4 4 4 4 4 4 4 4 5 5 4 4 6 6 6 4 4 4 4 5 5 5 5 5 5 4 4 4 4 4 4 4
4 4 5 5 4 4 4 4 4 4 4 3 4 4 4 3 4 4 4 4 4 5 4 4 6 6 5 4 4 4 4 4 5 5 5 4 4 4 4 4 4 4 3 3
4 4 4 5 4 4 3 3 3 3 3 3 3 3 3 2 3 3 3 3 4 5 4 3 4 4 4 4 4 5 4 4 5 5 5 4 5 4 4 4 5 4 3 3
5 4 4 4 4 4 3 3 3 4 3 3 3 3 3 2 2 2 3 3 3 3 3 3 3 3 4 4 4 5 4 4 4 4 4 4 4 4 4 5 4 3 3 3
Wind_Direction
282 292 275 265 258 246 247 257 264 268 266 273 277 278 277 271 259 266 270 264 263 266 269 265 274 273 267 262 271 268 260 257 260 266 269 268 261 258 255 250 247 245 245 239
262 260 260 265 259 249 250 255 255 260 268 281 287 272 268 270 267 259 262 270 276 274 282 287 288 283 273 273 276 267 267 266 270 271 271 269 269 265 256 253 252 249 248 247
262 262 266 258 252 240 238 240 248 257 268 271 270 271 274 279 270 271 273 283 285 285 289 294 292 296 286 280 277 271 275 278 279 280 279 272 272 269 257 253 254 253 251 249
269 260 248 295 28 271 250 254 254 265 269 263 273 279 280 278 278 288 290 291 293 294 292 287 288 286 284 269 267 267 274 283 287 281 279 275 266 263 261 256 251 253 253 250
242 257 267 255 221 228 249 263 244 254 266 271 264 255 251 260 290 295 301 299 299 299 292 285 283 285 285 273 272 270 274 281 282 281 278 275 268 265 264 263 258 253 252 253
234 252 258 212 108 254 256 251 194 252 263 267 255 257 265 322 298 296 305 304 303 301 296 293 296 288 281 277 279 282 285 288 288 283 276 271 271 270 265 259 257 255 250 249
237 248 262 355 141 219 239 345 82 250 262 256 264 300 328 314 300 297 295 303 302 298 295 297 295 285 280 281 285 291 295 295 292 288 282 275 273 270 266 262 257 254 251 247
228 235 240 132 184 233 314 352 293 281 272 266 279 298 294 291 292 295 292 296 291 289 292 297 291 282 285 291 298 298 293 289 286 286 286 278 267 265 263 260 255 252 251 249
240 261 336 231 253 283 293 284 285 283 277 267 271 278 283 284 281 279 280 284 284 288 290 289 289 288 287 292 296 293 287 284 283 281 283 280 269 261 257 255 254 251 248 248
256 257 265 267 271 275 278 281 287 284 278 261 267 275 276 276 273 271 272 277 282 283 282 285 289 288 288 292 290 285 283 284 285 287 288 287 279 268 261 255 254 253 248 248
257 267 274 263 266 278 282 283 279 275 266 265 266 268 270 267 267 269 269 272 275 276 278 281 285 287 290 292 286 279 281 283 282 282 282 284 282 279 268 266 268 265 260 254
262 269 271 279 288 286 280 277 273 268 266 264 262 265 267 265 265 267 267 269 269 269 272 277 283 286 288 287 283 281 282 285 283 280 279 276 277 277 271 265 278 274 274 271
273 283 283 285 284 275 270 272 271 267 265 267 266 265 262 261 264 266 263 262 262 265 270 275 278 281 284 285 282 278 279 282 280 277 274 271 267 265 269 265 255 254 255 258
264 267 271 274 282 282 275 272 271 268 264 265 268 264 259 260 262 261 260 260 260 262 267 270 274 280 286 287 284 281 280 280 279 273 271 269 265 263 264 265 266 264 245 235
258 261 270 278 278 275 272 266 264 265 268 269 264 261 257 258 261 264 265 261 260 266 271 274 277 283 289 288 286 284 282 279 279 279 275 271 266 262 261 261 260 262 265 241
265 267 266 264 265 267 265 261 261 265 267 268 264 260 261 265 271 273 271 264 264 271 276 275 277 285 289 286 285 283 281 285 286 279 273 269 266 262 258 255 253 254 254 254
258 264 267 269 267 265 262 260 260 263 263 263 265 266 268 272 274 274 273 274 274 274 274 274 279 285 286 285 284 280 278 275 277 275 270 269 265 262 260 257 255 253 253 251
263 268 268 266 265 267 267 265 262 261 263 268 271 268 264 263 267 274 278 276 277 277 278 281 285 288 285 284 282 279 276 275 271 273 274 271 268 263 260 257 256 256 256 244
276 279 278 273 267 261 263 265 264 264 265 264 263 262 262 264 269 273 277 272 272 277 283 289 294 286 284 284 286 276 276 276 273 272 273 274 268 264 260 258 258 258 258 252
299 299 291 287 273 261 262 266 266 267 265 262 263 264 265 269 272 272 270 270 273 285 291 291 286 285 285 283 286 278 278 277 274 272 271 269 266 266 263 260 259 257 255 253
305 304 301 296 288 278 270 268 264 262 263 260 260 263 267 272 273 272 271 275 283 290 292 290 284 286 287 295 284 282 280 279 277 275 272 270 269 267 265 261 259 258 256 254
303 302 301 299 295 291 285 274 265 263 261 260 262 265 267 270 273 273 270 276 288 296 290 282 284 296 305 302 282 280 279 279 278 277 277 276 274 272 269 268 265 262 259 256
297 299 300 298 292 291 291 280 270 266 262 260 259 259 263 272 274 273 278 283 287 295 292 286 302 306 305 291 284 283 281 280 278 277 277 277 276 275 276 274 271 267 263 258
296 299 299 296 291 285 285 286 279 270 267 268 260 260 262 267 270 272 280 284 289 289 286 293 299 299 296 288 285 284 283 281 278 277 279 278 276 277 277 275 271 268 264 263
289 293 297 292 286 281 280 284 281 273 270 271 269 265 263 264 270 278 282 281 284 286 285 290 294 294 288 286 286 287 286 285 289 286 279 278 279 278 276 272 270 270 267 262
285 286 285 279 279 279 276 272 270 271 271 272 277 277 276 276 275 278 276 276 277 284 286 286 284 284 284 287 287 288 289 288 283 282 283 280 279 279 276 272 271 269 268 265
278 280 281 280 277 273 269 264 263 267 268 270 276 276 274 273 274 278 281 283 285 282 283 284 284 284 286 288 288 289 291 292 290 289 286 280 277 277 276 274 270 266 264 262